Weather History for KCDJ - December, 2012

Change the Weather History Date:

Monday, December 10, 2012

  Actual Average (KIRK) Record (KIRK)
Temperature  
Mean Temperature 22 °F 30 °F  
Max Temperature 30 °F 38 °F - ()
Min Temperature 15 °F 22 °F - ()
Degree Days  
Heating Degree Days 42 35  
Month to date heating degree days 335  
Since 1 July heating degree days 1556  
Cooling Degree Days 0 0  
Month to date cooling degree days 0  
Year to date cooling degree days 939  
Moisture  
Dew Point 12 °F    
Average Humidity 66    
Maximum Humidity 81    
Minimum Humidity 51    
Precipitation  
Precipitation 0.00 in 0.06 in - ()
Month to date precipitation 0.65  
Year to date precipitation 38.21  
Sea Level Pressure  
Sea Level Pressure 30.09 in    
Wind  
Wind Speed 9 mph (WNW)    
Max Wind Speed 14 mph    
Max Gust Speed 22 mph    
T = Trace of Precipitation, MM = Missing Value Source: NWS Daily Summary

Daily Weather History Graph

Daily Weather History Graph

Search for Another Location

Airport or City:

Trip Planner

Search our weather history database for the weather conditions in past years. The results will help you decide how hot, cold, wet, or windy it might be!

Date:

Astronomy

Dec. 10, 2012 Rise Set
Actual Time 7:25 AM CST 4:49 PM CST
Civil Twilight 6:54 AM CST 5:19 PM CST
Nautical Twilight 6:20 AM CST 5:53 PM CST
Astronomical Twilight 5:48 AM CST 6:26 PM CST
Moon 4:09 AM CST (12/10) 2:39 PM CST (12/10)
Length of Visible Light 10h 25m
Length of Day
9h 24m
Waning Crescent, 10% of the Moon is Illuminated
Dec 10
Waning Crescent
Dec 13
New
Dec 19
First Quarter
Dec 28
Full
Jan 4
Last Quarter

Hourly Weather History & Observations

Time (CST) Temp. Windchill Dew Point Humidity Pressure Visibility Wind Dir Wind Speed Gust Speed Precip Events Conditions
12:52 AM 21.9 °F 9.2 °F 12.0 °F 66% 30.06 in - WNW 13.8 mph 20.7 mph N/A   Unknown
1:52 AM 21.0 °F 9.3 °F 10.9 °F 65% 30.05 in - NW 11.5 mph 21.9 mph N/A   Unknown
2:52 AM 19.9 °F 8.6 °F 10.9 °F 68% 30.06 in - NW 10.4 mph - N/A   Unknown
3:52 AM 19.9 °F 7.3 °F 10.0 °F 65% 30.06 in - NW 12.7 mph 18.4 mph N/A   Unknown
4:52 AM 19.9 °F 7.3 °F 10.0 °F 65% 30.07 in - NW 12.7 mph 21.9 mph N/A   Unknown
5:52 AM 19.9 °F 9.3 °F 10.0 °F 65% 30.08 in - NW 9.2 mph 19.6 mph N/A   Unknown
6:52 AM 19.9 °F 7.9 °F 10.0 °F 65% 30.10 in - WNW 11.5 mph 19.6 mph N/A   Unknown
7:52 AM 19.9 °F 9.3 °F 10.0 °F 65% 30.12 in - NW 9.2 mph - N/A   Unknown
8:52 AM 21.0 °F 9.3 °F 10.9 °F 65% 30.13 in - NW 11.5 mph 18.4 mph N/A   Unknown
9:52 AM 21.9 °F 12.5 °F 10.9 °F 63% 30.12 in - NW 8.1 mph - N/A   Unknown
10:52 AM 23.0 °F 13.9 °F 10.9 °F 60% 30.13 in - WNW 8.1 mph - N/A   Unknown
11:52 AM 24.1 °F 15.2 °F 12.9 °F 62% 30.11 in - NW 8.1 mph - N/A   Unknown
12:52 PM 26.1 °F 18.4 °F 14.0 °F 60% 30.09 in - West 6.9 mph - N/A   Unknown
1:52 PM 28.9 °F 21.1 °F 15.1 °F 56% 30.06 in - West 8.1 mph - N/A   Unknown
2:52 PM 30.0 °F 22.4 °F 15.1 °F 54% 30.06 in - West 8.1 mph - N/A   Unknown
3:52 PM 30.0 °F 23.2 °F 14.0 °F 51% 30.06 in - Variable 6.9 mph - N/A   Unknown
4:52 PM 28.0 °F 24.2 °F 14.0 °F 56% 30.08 in - WSW 3.5 mph - N/A   Unknown
5:52 PM 25.0 °F - 14.0 °F 63% 30.08 in - Calm Calm - N/A   Unknown
6:52 PM 21.0 °F - 14.0 °F 74% 30.08 in - Calm Calm - N/A   Unknown
7:52 PM 18.0 °F - 12.9 °F 81% 30.09 in - Calm Calm - N/A   Unknown
8:52 PM 18.0 °F - 12.9 °F 81% 30.10 in - Calm Calm - N/A   Unknown
9:52 PM 17.1 °F - 10.9 °F 77% 30.10 in - Calm Calm - N/A   Unknown
10:52 PM 15.1 °F - 10.0 °F 80% 30.10 in - Calm Calm - N/A   Unknown
11:52 PM 16.0 °F - 10.9 °F 81% 30.10 in - Calm Calm - N/A   Unknown